| time (UTC) | temp C | wind direction | speed KPH | gust KPH | rain 1hr cm | rain 24hr cm | rain mn cm | humidity % | barometer mb |
| 20260509024515 | 17 | 273 | 0.0 | 0.0 | 0.00 | 0.00 | 0.00 | 68 | 1009.7 |
| 20260509024012 | 16 | 289 | 3.2 | 4.8 | 0.00 | 0.00 | 0.00 | 70 | 1009.7 |
| 20260509023509 | 15 | 294 | 3.2 | 4.8 | 0.00 | 0.00 | 0.00 | 76 | 1009.5 |
| 20260509023006 | 16 | 241 | 0.0 | 0.0 | 0.00 | 0.00 | 0.00 | 80 | 1009.5 |
| 20260509022502 | 16 | 249 | 0.0 | 1.6 | 0.00 | 0.00 | 0.00 | 75 | 1009.2 |
| 20260509022000 | 15 | 284 | 0.0 | 0.0 | 0.00 | 0.00 | 0.00 | 82 | 1009.0 |
| 20260509021457 | 15 | 295 | 0.0 | 0.0 | 0.00 | 0.00 | 0.00 | 81 | 1008.9 |
| 20260509020954 | 16 | 228 | 0.0 | 1.6 | 0.00 | 0.00 | 0.00 | 79 | 1008.8 |
| 20260509020452 | 16 | 326 | 1.6 | 1.6 | 0.00 | 0.00 | 0.00 | 78 | 1008.4 |
| 20260509015949 | 16 | 302 | 0.0 | 1.6 | 0.00 | 0.00 | 0.00 | 76 | 1008.4 |
| 20260509015448 | 16 | 281 | 0.0 | 0.0 | 0.00 | 0.00 | 0.00 | 74 | 1008.3 |
| 20260509014944 | 17 | 281 | 0.0 | 0.0 | 0.00 | 0.00 | 0.00 | 74 | 1008.0 |
| 20260509014441 | 17 | 282 | 0.0 | 0.0 | 0.00 | 0.00 | 0.00 | 70 | 1007.9 |
| 20260509013937 | 17 | 281 | 0.0 | 0.0 | 0.00 | 0.00 | 0.00 | 71 | 1007.6 |
| 20260509013434 | 18 | 343 | 0.0 | 0.0 | 0.00 | 0.00 | 0.00 | 71 | 1007.5 |
| 20260509012930 | 19 | 13 | 1.6 | 1.6 | 0.00 | 0.00 | 0.00 | 62 | 1007.2 |
| 20260509012427 | 19 | 315 | 0.0 | 1.6 | 0.00 | 0.00 | 0.00 | 59 | 1007.4 |
| 20260509011924 | 19 | 309 | 0.0 | 1.6 | 0.00 | 0.00 | 0.00 | 61 | 1007.3 |
| 20260509011421 | 20 | 280 | 0.0 | 0.0 | 0.00 | 0.00 | 0.00 | 60 | 1007.2 |
| 20260509010919 | 19 | 283 | 0.0 | 0.0 | 0.00 | 0.00 | 0.00 | 61 | 1007.0 |
| 20260509010416 | 19 | 122 | 1.6 | 1.6 | 0.00 | 0.00 | 0.00 | 62 | 1006.8 |
| 20260509005913 | 19 | 209 | 1.6 | 1.6 | 0.00 | 0.00 | 0.00 | 60 | 1007.1 |
| 20260509005411 | 20 | 203 | 3.2 | 4.8 | 0.00 | 0.00 | 0.00 | 61 | 1007.3 |
| 20260509004911 | 19 | 322 | 4.8 | 6.4 | 0.00 | 0.00 | 0.00 | 61 | 1007.8 |
| 20260509004408 | 20 | 253 | 1.6 | 1.6 | 0.00 | 0.00 | 0.00 | 61 | 1007.7 |
| 20260509003905 | 20 | 339 | 1.6 | 1.6 | 0.00 | 0.00 | 0.00 | 58 | 1007.2 |
| 20260509003403 | 20 | 339 | 3.2 | 4.8 | 0.00 | 0.00 | 0.00 | 55 | 1007.6 |
| 20260509002900 | 20 | 326 | 4.8 | 6.4 | 0.00 | 0.00 | 0.00 | 57 | 1007.8 |
| 20260509002358 | 21 | 315 | 3.2 | 4.8 | 0.00 | 0.00 | 0.00 | 56 | 1007.4 |
| 20260509001855 | 21 | 204 | 11.3 | 16.1 | 0.00 | 0.00 | 0.00 | 52 | 1007.1 |
| 20260509001351 | 21 | 322 | 0.0 | 4.8 | 0.00 | 0.00 | 0.00 | 51 | 1006.5 |
| 20260509000848 | 20 | 255 | 16.1 | 24.1 | 0.00 | 0.00 | 0.00 | 48 | 1006.3 |
| 20260509000348 | 20 | 305 | 1.6 | 4.8 | 0.00 | 0.00 | 0.00 | 55 | 1006.2 |
| 20260508235842 | 20 | 114 | 4.8 | 6.4 | 0.00 | 0.00 | 0.00 | 57 | 1006.3 |
| 20260508235339 | 20 | 227 | 8.0 | 12.9 | 0.00 | 0.00 | 0.00 | 63 | 1007.2 |
| 20260508234836 | 20 | 206 | 8.0 | 12.9 | 0.00 | 0.00 | 0.00 | 61 | 1007.1 |
| 20260508234332 | 20 | 194 | 12.9 | 12.9 | 0.00 | 0.00 | 0.00 | 62 | 1006.8 |
| 20260508233831 | 20 | 271 | 1.6 | 1.6 | 0.00 | 0.00 | 0.00 | 65 | 1007.5 |
| 20260508233330 | 20 | 181 | 8.0 | 11.3 | 0.00 | 0.00 | 0.00 | 62 | 1007.4 |
| 20260508232826 | 20 | 227 | 6.4 | 8.0 | 0.00 | 0.00 | 0.00 | 64 | 1008.0 |
| 20260508232323 | 20 | 241 | 0.0 | 1.6 | 0.00 | 0.00 | 0.00 | 70 | 1008.1 |
| 20260508231821 | 20 | 23 | 3.2 | 4.8 | 0.00 | 0.00 | 0.00 | 66 | 1008.0 |
| 20260508231317 | 20 | 156 | 1.6 | 1.6 | 0.00 | 0.00 | 0.00 | 66 | 1008.3 |
| 20260508230814 | 21 | 291 | 1.6 | 1.6 | 0.00 | 0.00 | 0.00 | 63 | 1008.3 |
| 20260508230310 | 21 | 261 | 0.0 | 0.0 | 0.00 | 0.00 | 0.00 | 58 | 1008.2 |
| 20260508225808 | 22 | 139 | 6.4 | 6.4 | 0.00 | 0.00 | 0.00 | 56 | 1007.9 |
| 20260508225306 | 22 | 209 | 0.0 | 0.0 | 0.00 | 0.00 | 0.00 | 56 | 1008.1 |
| 20260508224803 | 22 | 281 | 1.6 | 1.6 | 0.00 | 0.00 | 0.00 | 55 | 1008.2 |
| 20260508224300 | 22 | 309 | 1.6 | 1.6 | 0.00 | 0.00 | 0.00 | 54 | 1008.5 |
| 20260508223757 | 22 | 273 | 0.0 | 1.6 | 0.00 | 0.00 | 0.00 | 53 | 1008.7 |
| 20260508223255 | 23 | 284 | 3.2 | 4.8 | 0.00 | 0.00 | 0.00 | 51 | 1008.9 |
| 20260508222752 | 23 | 285 | 3.2 | 4.8 | 0.00 | 0.00 | 0.00 | 52 | 1008.8 |
| 20260508222249 | 23 | 75 | 1.6 | 1.6 | 0.00 | 0.00 | 0.00 | 51 | 1009.0 |
| 20260508221745 | 23 | 269 | 3.2 | 4.8 | 0.00 | 0.00 | 0.00 | 49 | 1008.8 |
| 20260508221241 | 23 | 277 | 3.2 | 4.8 | 0.00 | 0.00 | 0.00 | 50 | 1008.7 |
| 20260508220737 | 23 | 216 | 3.2 | 4.8 | 0.00 | 0.00 | 0.00 | 52 | 1008.7 |
| 20260508220234 | 25 | 12 | 3.2 | 8.0 | 0.00 | 0.00 | 0.00 | 48 | 1008.4 |
| 20260508215730 | 25 | 274 | 3.2 | 4.8 | 0.00 | 0.00 | 0.00 | 46 | 1008.2 |
| 20260508215227 | 25 | 260 | 1.6 | 1.6 | 0.00 | 0.00 | 0.00 | 43 | 1008.2 |
| 20260508214724 | 25 | 255 | 6.4 | 8.0 | 0.00 | 0.00 | 0.00 | 43 | 1008.2 |
| 20260508214222 | 25 | 207 | 12.9 | 16.1 | 0.00 | 0.00 | 0.00 | 43 | 1008.0 |
| 20260508213718 | 25 | 210 | 3.2 | 4.8 | 0.00 | 0.00 | 0.00 | 45 | 1008.1 |
| 20260508213215 | 26 | 275 | 0.0 | 1.6 | 0.00 | 0.00 | 0.00 | 45 | 1008.1 |
| 20260508212711 | 27 | 290 | 0.0 | 1.6 | 0.00 | 0.00 | 0.00 | 41 | 1008.2 |
| 20260508212208 | 26 | 278 | 3.2 | 4.8 | 0.00 | 0.00 | 0.00 | 43 | 1008.2 |
| 20260508211703 | 26 | 189 | 8.0 | 11.3 | 0.00 | 0.00 | 0.00 | 42 | 1008.2 |
| 20260508211159 | 27 | 305 | 1.6 | 1.6 | 0.00 | 0.00 | 0.00 | 44 | 1008.3 |
| 20260508210657 | 26 | 285 | 3.2 | 6.4 | 0.00 | 0.00 | 0.00 | 43 | 1008.4 |
| 20260508210154 | 26 | 272 | 0.0 | 1.6 | 0.00 | 0.00 | 0.00 | 47 | 1008.5 |
| 20260508205651 | 26 | 324 | 3.2 | 4.8 | 0.00 | 0.00 | 0.00 | 41 | 1008.7 |
| 20260508205147 | 26 | 238 | 0.0 | 0.0 | 0.00 | 0.00 | 0.00 | 46 | 1008.5 |
| 20260508204643 | 25 | 261 | 3.2 | 4.8 | 0.00 | 0.00 | 0.00 | 45 | 1008.5 |
| 20260508204139 | 25 | 243 | 11.3 | 12.9 | 0.00 | 0.00 | 0.00 | 43 | 1008.5 |
| 20260508203636 | 25 | 211 | 14.5 | 19.3 | 0.00 | 0.00 | 0.00 | 41 | 1008.5 |
| 20260508203132 | 25 | 188 | 12.9 | 16.1 | 0.00 | 0.00 | 0.00 | 42 | 1008.6 |
| 20260508202628 | 25 | 219 | 6.4 | 8.0 | 0.00 | 0.00 | 0.00 | 43 | 1008.8 |
| 20260508202125 | 24 | 209 | 6.4 | 6.4 | 0.00 | 0.00 | 0.00 | 41 | 1008.8 |
| 20260508201622 | 25 | 65 | 8.0 | 11.3 | 0.00 | 0.00 | 0.00 | 43 | 1008.9 |
| 20260508201119 | 24 | 220 | 12.9 | 17.7 | 0.00 | 0.00 | 0.00 | 43 | 1009.2 |
| 20260508200616 | 25 | 233 | 14.5 | 17.7 | 0.00 | 0.00 | 0.00 | 42 | 1009.2 |
| 20260508200112 | 25 | 245 | 9.7 | 16.1 | 0.00 | 0.00 | 0.00 | 43 | 1009.3 |
| 20260508195609 | 25 | 254 | 9.7 | 12.9 | 0.00 | 0.00 | 0.00 | 42 | 1009.2 |
| 20260508195105 | 25 | 138 | 6.4 | 8.0 | 0.00 | 0.00 | 0.00 | 44 | 1009.2 |
| 20260508194602 | 24 | 185 | 6.4 | 12.9 | 0.00 | 0.00 | 0.00 | 46 | 1009.3 |
| 20260508194059 | 25 | 198 | 19.3 | 24.1 | 0.00 | 0.00 | 0.00 | 41 | 1009.2 |
| 20260508193555 | 25 | 242 | 3.2 | 4.8 | 0.00 | 0.00 | 0.00 | 45 | 1009.4 |
| 20260508193052 | 25 | 202 | 8.0 | 8.0 | 0.00 | 0.00 | 0.00 | 47 | 1009.5 |
| 20260508192549 | 25 | 89 | 6.4 | 8.0 | 0.00 | 0.00 | 0.00 | 45 | 1009.6 |
| 20260508192046 | 24 | 202 | 9.7 | 11.3 | 0.00 | 0.00 | 0.00 | 43 | 1009.7 |
| 20260508191543 | 23 | 251 | 9.7 | 11.3 | 0.00 | 0.00 | 0.00 | 45 | 1009.9 |
| 20260508191039 | 23 | 190 | 4.8 | 6.4 | 0.00 | 0.00 | 0.00 | 45 | 1010.1 |
| 20260508190537 | 23 | 206 | 3.2 | 4.8 | 0.00 | 0.00 | 0.00 | 48 | 1010.1 |
| 20260508190033 | 23 | 183 | 4.8 | 6.4 | 0.00 | 0.00 | 0.00 | 47 | 1010.2 |
| 20260508185530 | 23 | 216 | 6.4 | 11.3 | 0.00 | 0.00 | 0.00 | 49 | 1010.2 |
| 20260508185028 | 23 | 232 | 3.2 | 4.8 | 0.00 | 0.00 | 0.00 | 54 | 1010.4 |
| 20260508184525 | 23 | 184 | 8.0 | 12.9 | 0.00 | 0.00 | 0.00 | 51 | 1010.3 |
| 20260508184022 | 22 | 206 | 12.9 | 16.1 | 0.00 | 0.00 | 0.00 | 49 | 1010.0 |
| 20260508183518 | 23 | 190 | 16.1 | 22.5 | 0.00 | 0.00 | 0.00 | 48 | 1010.2 |
| 20260508183014 | 22 | 66 | 1.6 | 1.6 | 0.00 | 0.00 | 0.00 | 52 | 1010.2 |
| 20260508182511 | 22 | 200 | 11.3 | 12.9 | 0.00 | 0.00 | 0.00 | 48 | 1010.4 |
| 20260508182007 | 22 | 198 | 9.7 | 12.9 | 0.00 | 0.00 | 0.00 | 48 | 1010.4 |
| 20260508181503 | 22 | 191 | 9.7 | 12.9 | 0.00 | 0.00 | 0.00 | 50 | 1010.4 |
| 20260508181001 | 22 | 244 | 9.7 | 12.9 | 0.00 | 0.00 | 0.00 | 48 | 1010.4 |
| 20260508180457 | 22 | 200 | 17.7 | 17.7 | 0.00 | 0.00 | 0.00 | 48 | 1010.6 |
| 20260508175953 | 23 | 205 | 14.5 | 22.5 | 0.00 | 0.00 | 0.00 | 46 | 1010.7 |
| 20260508175449 | 23 | 168 | 20.9 | 25.7 | 0.00 | 0.00 | 0.00 | 47 | 1010.6 |
| 20260508174948 | 23 | 87 | 6.4 | 6.4 | 0.00 | 0.00 | 0.00 | 51 | 1010.8 |
| 20260508174445 | 22 | 251 | 9.7 | 16.1 | 0.00 | 0.00 | 0.00 | 51 | 1010.9 |
| 20260508173942 | 22 | 272 | 8.0 | 12.9 | 0.00 | 0.00 | 0.00 | 54 | 1011.1 |
| 20260508173439 | 22 | 199 | 8.0 | 8.0 | 0.00 | 0.00 | 0.00 | 51 | 1011.2 |
| 20260508172934 | 22 | 324 | 4.8 | 6.4 | 0.00 | 0.00 | 0.00 | 54 | 1011.3 |
| 20260508172432 | 22 | 188 | 9.7 | 16.1 | 0.00 | 0.00 | 0.00 | 50 | 1011.3 |
| 20260508171928 | 22 | 200 | 8.0 | 8.0 | 0.00 | 0.00 | 0.00 | 52 | 1011.3 |
| 20260508171425 | 21 | 152 | 6.4 | 6.4 | 0.00 | 0.00 | 0.00 | 54 | 1011.6 |
| 20260508170921 | 22 | 140 | 25.7 | 29.0 | 0.00 | 0.00 | 0.00 | 51 | 1011.7 |
| 20260508170419 | 21 | 266 | 6.4 | 11.3 | 0.00 | 0.00 | 0.00 | 53 | 1011.8 |
| 20260508165915 | 21 | 236 | 8.0 | 11.3 | 0.00 | 0.00 | 0.00 | 56 | 1011.9 |
| 20260508165414 | 21 | 237 | 11.3 | 12.9 | 0.00 | 0.00 | 0.00 | 56 | 1012.1 |
| 20260508164909 | 21 | 134 | 11.3 | 19.3 | 0.00 | 0.00 | 0.00 | 56 | 1012.4 |
| 20260508164406 | 22 | 270 | 8.0 | 11.3 | 0.00 | 0.00 | 0.00 | 57 | 1012.4 |
| 20260508163903 | 21 | 37 | 1.6 | 1.6 | 0.00 | 0.00 | 0.00 | 59 | 1012.4 |
| 20260508163401 | 21 | 182 | 14.5 | 19.3 | 0.00 | 0.00 | 0.00 | 56 | 1012.6 |
| 20260508162856 | 21 | 210 | 11.3 | 12.9 | 0.00 | 0.00 | 0.00 | 59 | 1012.7 |
| 20260508162354 | 21 | 238 | 12.9 | 17.7 | 0.00 | 0.00 | 0.00 | 56 | 1012.7 |
| 20260508161851 | 20 | 324 | 1.6 | 1.6 | 0.00 | 0.00 | 0.00 | 62 | 1012.8 |
| 20260508161348 | 20 | 225 | 12.9 | 19.3 | 0.00 | 0.00 | 0.00 | 61 | 1012.8 |
| 20260508160845 | 20 | 195 | 9.7 | 12.9 | 0.00 | 0.00 | 0.00 | 60 | 1012.8 |
| 20260508160344 | 20 | 239 | 12.9 | 17.7 | 0.00 | 0.00 | 0.00 | 61 | 1013.1 |
| 20260508155840 | 21 | 115 | 8.0 | 11.3 | 0.00 | 0.00 | 0.00 | 61 | 1013.2 |
| 20260508155337 | 20 | 295 | 4.8 | 6.4 | 0.00 | 0.00 | 0.00 | 62 | 1013.3 |
| 20260508154834 | 20 | 204 | 12.9 | 16.1 | 0.00 | 0.00 | 0.00 | 62 | 1013.3 |
| 20260508154332 | 20 | 228 | 4.8 | 6.4 | 0.00 | 0.00 | 0.00 | 63 | 1013.4 |
| 20260508153828 | 20 | 151 | 6.4 | 11.3 | 0.00 | 0.00 | 0.00 | 63 | 1013.6 |
| 20260508153326 | 20 | 240 | 3.2 | 8.0 | 0.00 | 0.00 | 0.00 | 64 | 1013.7 |
| 20260508152821 | 19 | 236 | 12.9 | 19.3 | 0.00 | 0.00 | 0.00 | 65 | 1013.4 |
| 20260508152318 | 18 | 208 | 8.0 | 11.3 | 0.00 | 0.00 | 0.00 | 67 | 1013.5 |
| 20260508151814 | 18 | 255 | 9.7 | 11.3 | 0.00 | 0.00 | 0.00 | 68 | 1013.8 |
| 20260508151311 | 18 | 30 | 12.9 | 22.5 | 0.00 | 0.00 | 0.00 | 70 | 1013.8 |
| 20260508150808 | 18 | 220 | 17.7 | 22.5 | 0.00 | 0.00 | 0.00 | 68 | 1013.9 |
| 20260508150304 | 18 | 176 | 8.0 | 11.3 | 0.00 | 0.00 | 0.00 | 68 | 1013.8 |
| 20260508145801 | 18 | 177 | 12.9 | 17.7 | 0.00 | 0.00 | 0.00 | 69 | 1014.0 |
| 20260508145257 | 18 | 178 | 11.3 | 16.1 | 0.00 | 0.00 | 0.00 | 69 | 1014.1 |
| 20260508144754 | 17 | 185 | 8.0 | 11.3 | 0.00 | 0.00 | 0.00 | 70 | 1014.0 |
| 20260508144252 | 17 | 268 | 0.0 | 4.8 | 0.00 | 0.00 | 0.00 | 72 | 1014.0 |
| 20260508143749 | 17 | 203 | 17.7 | 24.1 | 0.00 | 0.00 | 0.00 | 73 | 1014.1 |
| 20260508143246 | 17 | 268 | 8.0 | 8.0 | 0.00 | 0.00 | 0.00 | 72 | 1014.2 |
| 20260508142742 | 17 | 214 | 12.9 | 17.7 | 0.00 | 0.00 | 0.00 | 72 | 1014.3 |
| 20260508142239 | 17 | 229 | 9.7 | 12.9 | 0.00 | 0.00 | 0.00 | 72 | 1014.1 |
| 20260508141736 | 17 | 207 | 12.9 | 16.1 | 0.00 | 0.00 | 0.00 | 72 | 1014.1 |
| 20260508141233 | 17 | 249 | 9.7 | 12.9 | 0.00 | 0.00 | 0.00 | 72 | 1014.3 |
| 20260508140730 | 17 | 212 | 9.7 | 11.3 | 0.00 | 0.00 | 0.00 | 74 | 1014.2 |
| 20260508140227 | 17 | 225 | 9.7 | 19.3 | 0.00 | 0.00 | 0.00 | 75 | 1014.0 |
| 20260508135723 | 16 | 252 | 3.2 | 4.8 | 0.00 | 0.00 | 0.00 | 75 | 1014.2 |
| 20260508135219 | 16 | 202 | 4.8 | 6.4 | 0.00 | 0.00 | 0.00 | 77 | 1014.4 |
| 20260508134715 | 16 | 230 | 8.0 | 11.3 | 0.00 | 0.00 | 0.00 | 77 | 1014.2 |
| 20260508134213 | 16 | 232 | 8.0 | 12.9 | 0.00 | 0.00 | 0.00 | 78 | 1014.0 |
| 20260508133709 | 15 | 110 | 6.4 | 6.4 | 0.00 | 0.00 | 0.00 | 79 | 1014.1 |
| 20260508133207 | 15 | 269 | 8.0 | 11.3 | 0.00 | 0.00 | 0.00 | 80 | 1014.0 |
| 20260508132705 | 15 | 212 | 6.4 | 8.0 | 0.00 | 0.00 | 0.00 | 81 | 1014.0 |
| 20260508132202 | 14 | 231 | 8.0 | 11.3 | 0.00 | 0.00 | 0.00 | 81 | 1014.0 |
| 20260508131657 | 13 | 199 | 6.4 | 8.0 | 0.00 | 0.00 | 0.00 | 81 | 1013.9 |
| 20260508131153 | 13 | 248 | 6.4 | 8.0 | 0.00 | 0.00 | 0.00 | 81 | 1013.9 |
| 20260508130650 | 13 | 216 | 4.8 | 8.0 | 0.00 | 0.00 | 0.00 | 82 | 1014.1 |
| 20260508130147 | 13 | 161 | 3.2 | 6.4 | 0.00 | 0.00 | 0.00 | 84 | 1013.8 |
| 20260508125643 | 12 | 192 | 1.6 | 4.8 | 0.00 | 0.00 | 0.00 | 87 | 1014.2 |
| 20260508125140 | 12 | 103 | 1.6 | 4.8 | 0.00 | 0.00 | 0.00 | 91 | 1014.0 |
| 20260508124638 | 11 | 147 | 3.2 | 4.8 | 0.00 | 0.00 | 0.00 | 94 | 1014.0 |
| 20260508124135 | 11 | 221 | 0.0 | 1.6 | 0.00 | 0.00 | 0.00 | 97 | 1014.0 |
| 20260508123633 | 10 | 193 | 6.4 | 8.0 | 0.00 | 0.00 | 0.00 | 98 | 1013.9 |
| 20260508123130 | 10 | 183 | 3.2 | 4.8 | 0.00 | 0.00 | 0.00 | 99 | 1014.1 |
| 20260508122626 | 10 | 170 | 3.2 | 4.8 | 0.00 | 0.00 | 0.00 | 99 | 1014.1 |
| 20260508122124 | 8 | 195 | 0.0 | 0.0 | 0.00 | 0.00 | 0.00 | 99 | 1014.1 |
| 20260508121622 | 8 | 188 | 1.6 | 1.6 | 0.00 | 0.00 | 0.00 | 99 | 1013.9 |
| 20260508121120 | 7 | 87 | 0.0 | 0.0 | 0.00 | 0.00 | 0.00 | 99 | 1014.1 |
| 20260508120617 | 6 | 65 | 0.0 | 0.0 | 0.00 | 0.00 | 0.00 | 99 | 1014.1 |
| 20260508120115 | 6 | 289 | 0.0 | 0.0 | 0.00 | 0.00 | 0.00 | 99 | 1014.0 |
| 20260508115612 | 6 | 258 | 0.0 | 0.0 | 0.00 | 0.00 | 0.00 | 99 | 1014.0 |
| 20260508115109 | 5 | 289 | 0.0 | 1.6 | 0.00 | 0.00 | 0.00 | 99 | 1014.0 |
| 20260508114606 | 5 | 274 | 0.0 | 0.0 | 0.00 | 0.00 | 0.00 | 99 | 1014.0 |
| 20260508114102 | 5 | 272 | 0.0 | 0.0 | 0.00 | 0.00 | 0.00 | 99 | 1014.1 |
| 20260508113559 | 5 | 272 | 0.0 | 0.0 | 0.00 | 0.00 | 0.00 | 99 | 1013.9 |
| 20260508113057 | 5 | 297 | 0.0 | 0.0 | 0.00 | 0.00 | 0.00 | 99 | 1013.8 |
| 20260508112553 | 6 | 263 | 0.0 | 0.0 | 0.00 | 0.00 | 0.00 | 99 | 1013.6 |
| 20260508112050 | 6 | 263 | 0.0 | 0.0 | 0.00 | 0.00 | 0.00 | 99 | 1013.8 |
| 20260508111547 | 6 | 262 | 0.0 | 0.0 | 0.00 | 0.00 | 0.00 | 99 | 1013.5 |
| 20260508111044 | 6 | 245 | 0.0 | 0.0 | 0.00 | 0.00 | 0.00 | 99 | 1013.4 |
| 20260508110542 | 6 | 245 | 0.0 | 0.0 | 0.00 | 0.00 | 0.00 | 99 | 1013.4 |
| 20260508110038 | 5 | 245 | 0.0 | 0.0 | 0.00 | 0.00 | 0.00 | 99 | 1013.4 |
| 20260508105538 | 5 | 245 | 0.0 | 0.0 | 0.00 | 0.00 | 0.00 | 99 | 1013.4 |
| 20260508105036 | 5 | 245 | 0.0 | 0.0 | 0.00 | 0.00 | 0.00 | 99 | 1013.5 |
| 20260508104534 | 5 | 245 | 0.0 | 0.0 | 0.00 | 0.00 | 0.00 | 99 | 1013.4 |
| 20260508104030 | 5 | 245 | 0.0 | 0.0 | 0.00 | 0.00 | 0.00 | 99 | 1013.3 |
| 20260508103527 | 5 | 245 | 0.0 | 0.0 | 0.00 | 0.00 | 0.00 | 99 | 1013.4 |
| 20260508103025 | 5 | 245 | 0.0 | 0.0 | 0.00 | 0.00 | 0.00 | 99 | 1013.3 |
| 20260508102522 | 5 | 245 | 0.0 | 0.0 | 0.00 | 0.00 | 0.00 | 99 | 1013.5 |
| 20260508102020 | 5 | 245 | 0.0 | 0.0 | 0.00 | 0.00 | 0.00 | 99 | 1013.3 |
| 20260508101517 | 5 | 245 | 0.0 | 0.0 | 0.00 | 0.00 | 0.00 | 99 | 1013.2 |
| 20260508101014 | 5 | 245 | 0.0 | 0.0 | 0.00 | 0.00 | 0.00 | 98 | 1013.1 |
| 20260508100512 | 5 | 245 | 0.0 | 0.0 | 0.00 | 0.00 | 0.00 | 98 | 1013.0 |
| 20260508100009 | 5 | 245 | 0.0 | 0.0 | 0.00 | 0.00 | 0.00 | 99 | 1013.0 |
| 20260508095506 | 5 | 245 | 0.0 | 0.0 | 0.00 | 0.00 | 0.00 | 99 | 1013.1 |
| 20260508095003 | 5 | 245 | 0.0 | 0.0 | 0.00 | 0.00 | 0.00 | 98 | 1013.1 |
| 20260508094500 | 5 | 245 | 0.0 | 0.0 | 0.00 | 0.00 | 0.00 | 98 | 1013.1 |
| 20260508093956 | 6 | 245 | 0.0 | 0.0 | 0.00 | 0.00 | 0.00 | 98 | 1013.2 |
| 20260508093454 | 5 | 245 | 0.0 | 0.0 | 0.00 | 0.00 | 0.00 | 98 | 1013.0 |
| 20260508092951 | 5 | 245 | 0.0 | 0.0 | 0.00 | 0.00 | 0.00 | 98 | 1012.8 |
| 20260508092449 | 5 | 244 | 0.0 | 0.0 | 0.00 | 0.00 | 0.00 | 98 | 1013.0 |
| 20260508091947 | 5 | 244 | 0.0 | 0.0 | 0.00 | 0.00 | 0.00 | 98 | 1013.0 |
| 20260508091443 | 5 | 244 | 0.0 | 0.0 | 0.00 | 0.00 | 0.00 | 98 | 1013.2 |
| 20260508090941 | 5 | 245 | 0.0 | 0.0 | 0.00 | 0.00 | 0.00 | 98 | 1013.1 |
| 20260508090440 | 5 | 245 | 0.0 | 0.0 | 0.00 | 0.00 | 0.00 | 98 | 1013.0 |
| 20260508085935 | 5 | 245 | 0.0 | 0.0 | 0.00 | 0.00 | 0.00 | 98 | 1013.0 |
| 20260508085432 | 5 | 244 | 0.0 | 0.0 | 0.00 | 0.00 | 0.00 | 98 | 1012.7 |
| 20260508084929 | 6 | 245 | 0.0 | 0.0 | 0.00 | 0.00 | 0.00 | 98 | 1013.0 |
| 20260508084425 | 5 | 245 | 0.0 | 0.0 | 0.00 | 0.00 | 0.00 | 98 | 1013.1 |
| 20260508083923 | 5 | 244 | 0.0 | 0.0 | 0.00 | 0.00 | 0.00 | 98 | 1013.1 |
| 20260508083420 | 5 | 244 | 0.0 | 0.0 | 0.00 | 0.00 | 0.00 | 98 | 1012.8 |
| 20260508082920 | 5 | 244 | 0.0 | 0.0 | 0.00 | 0.00 | 0.00 | 98 | 1013.1 |
| 20260508082418 | 6 | 244 | 0.0 | 0.0 | 0.00 | 0.00 | 0.00 | 98 | 1013.1 |
| 20260508081916 | 6 | 244 | 0.0 | 0.0 | 0.00 | 0.00 | 0.00 | 98 | 1013.1 |
| 20260508081412 | 6 | 244 | 0.0 | 0.0 | 0.00 | 0.00 | 0.00 | 98 | 1013.3 |
| 20260508080908 | 6 | 244 | 0.0 | 0.0 | 0.00 | 0.00 | 0.00 | 98 | 1013.3 |
| 20260508080407 | 6 | 245 | 0.0 | 0.0 | 0.00 | 0.00 | 0.00 | 98 | 1013.4 |
| 20260508075903 | 6 | 245 | 0.0 | 0.0 | 0.00 | 0.00 | 0.00 | 98 | 1013.4 |
| 20260508075400 | 6 | 245 | 0.0 | 0.0 | 0.00 | 0.00 | 0.00 | 98 | 1013.3 |
| 20260508074858 | 6 | 244 | 0.0 | 0.0 | 0.00 | 0.00 | 0.00 | 98 | 1013.4 |
| 20260508074354 | 6 | 244 | 0.0 | 0.0 | 0.00 | 0.00 | 0.00 | 98 | 1013.4 |
| 20260508073852 | 6 | 245 | 0.0 | 0.0 | 0.00 | 0.00 | 0.00 | 98 | 1013.4 |
| 20260508073350 | 6 | 245 | 0.0 | 0.0 | 0.00 | 0.00 | 0.00 | 98 | 1013.6 |
| 20260508072846 | 6 | 245 | 0.0 | 0.0 | 0.00 | 0.00 | 0.00 | 98 | 1013.6 |
| 20260508072342 | 6 | 245 | 0.0 | 0.0 | 0.00 | 0.00 | 0.00 | 98 | 1013.5 |
| 20260508071839 | 6 | 244 | 0.0 | 0.0 | 0.00 | 0.00 | 0.00 | 98 | 1013.8 |
| 20260508071338 | 6 | 244 | 0.0 | 0.0 | 0.00 | 0.00 | 0.00 | 98 | 1013.7 |
| 20260508070835 | 6 | 244 | 0.0 | 0.0 | 0.00 | 0.00 | 0.00 | 98 | 1013.7 |
| 20260508070333 | 6 | 244 | 0.0 | 0.0 | 0.00 | 0.00 | 0.00 | 97 | 1013.8 |
| 20260508065831 | 6 | 244 | 0.0 | 0.0 | 0.00 | 0.00 | 0.00 | 97 | 1014.1 |
| 20260508065329 | 6 | 244 | 0.0 | 0.0 | 0.00 | 0.00 | 0.00 | 97 | 1014.0 |
| 20260508064827 | 6 | 244 | 0.0 | 0.0 | 0.00 | 0.00 | 0.00 | 97 | 1014.0 |
| 20260508064324 | 7 | 245 | 0.0 | 0.0 | 0.00 | 0.00 | 0.00 | 97 | 1014.1 |
| 20260508063821 | 7 | 245 | 0.0 | 0.0 | 0.00 | 0.00 | 0.00 | 97 | 1014.1 |
| 20260508063320 | 7 | 245 | 0.0 | 0.0 | 0.00 | 0.00 | 0.00 | 97 | 1014.0 |
| 20260508062816 | 7 | 245 | 0.0 | 0.0 | 0.00 | 0.00 | 0.00 | 97 | 1013.9 |
| 20260508062314 | 7 | 245 | 0.0 | 0.0 | 0.00 | 0.00 | 0.00 | 97 | 1014.2 |
| 20260508061810 | 7 | 245 | 0.0 | 0.0 | 0.00 | 0.00 | 0.00 | 97 | 1014.1 |
| 20260508061308 | 6 | 245 | 0.0 | 0.0 | 0.00 | 0.00 | 0.00 | 97 | 1014.2 |
| 20260508060804 | 6 | 244 | 0.0 | 0.0 | 0.00 | 0.00 | 0.00 | 97 | 1014.1 |
| 20260508060302 | 6 | 244 | 0.0 | 0.0 | 0.00 | 0.00 | 0.00 | 97 | 1014.1 |
| 20260508055757 | 6 | 245 | 0.0 | 0.0 | 0.00 | 0.00 | 0.00 | 97 | 1014.3 |
| 20260508055255 | 6 | 245 | 0.0 | 0.0 | 0.00 | 0.00 | 0.00 | 97 | 1014.1 |
| 20260508054751 | 7 | 245 | 0.0 | 0.0 | 0.00 | 0.00 | 0.00 | 97 | 1014.2 |
| 20260508054249 | 7 | 245 | 0.0 | 0.0 | 0.00 | 0.00 | 0.00 | 96 | 1014.2 |
| 20260508053745 | 7 | 245 | 0.0 | 0.0 | 0.00 | 0.00 | 0.00 | 96 | 1014.3 |
| 20260508053243 | 7 | 244 | 0.0 | 0.0 | 0.00 | 0.00 | 0.00 | 96 | 1014.2 |
| 20260508052740 | 7 | 244 | 0.0 | 0.0 | 0.00 | 0.00 | 0.00 | 96 | 1014.3 |
| 20260508052237 | 7 | 245 | 0.0 | 0.0 | 0.00 | 0.00 | 0.00 | 96 | 1014.5 |
| 20260508051733 | 7 | 245 | 0.0 | 0.0 | 0.00 | 0.00 | 0.00 | 96 | 1014.3 |
| 20260508051228 | 7 | 245 | 0.0 | 0.0 | 0.00 | 0.00 | 0.00 | 96 | 1014.4 |
| 20260508050725 | 7 | 244 | 0.0 | 0.0 | 0.00 | 0.00 | 0.00 | 96 | 1014.2 |
| 20260508050223 | 7 | 244 | 0.0 | 0.0 | 0.00 | 0.00 | 0.00 | 96 | 1014.6 |
| 20260508045718 | 7 | 244 | 0.0 | 0.0 | 0.00 | 0.00 | 0.00 | 96 | 1014.4 |
| 20260508045216 | 7 | 244 | 0.0 | 0.0 | 0.00 | 0.00 | 0.00 | 96 | 1014.5 |
| 20260508044713 | 7 | 244 | 0.0 | 0.0 | 0.00 | 0.00 | 0.00 | 95 | 1014.6 |
| 20260508044210 | 7 | 245 | 0.0 | 0.0 | 0.00 | 0.00 | 0.00 | 95 | 1014.8 |
| 20260508043705 | 7 | 245 | 0.0 | 0.0 | 0.00 | 0.00 | 0.00 | 95 | 1014.7 |
| 20260508043204 | 7 | 245 | 0.0 | 0.0 | 0.00 | 0.00 | 0.00 | 95 | 1014.7 |
| 20260508042700 | 7 | 244 | 0.0 | 0.0 | 0.00 | 0.00 | 0.00 | 95 | 1014.8 |
| 20260508042157 | 7 | 244 | 0.0 | 0.0 | 0.00 | 0.00 | 0.00 | 94 | 1014.8 |
| 20260508041653 | 7 | 244 | 0.0 | 0.0 | 0.00 | 0.00 | 0.00 | 94 | 1014.9 |
| 20260508041151 | 8 | 244 | 0.0 | 0.0 | 0.00 | 0.00 | 0.00 | 94 | 1015.0 |
| 20260508040647 | 8 | 245 | 0.0 | 0.0 | 0.00 | 0.00 | 0.00 | 94 | 1014.9 |
| 20260508040144 | 8 | 244 | 0.0 | 1.6 | 0.00 | 0.00 | 0.00 | 94 | 1014.9 |
| 20260508035641 | 8 | 244 | 0.0 | 0.0 | 0.00 | 0.00 | 0.00 | 94 | 1014.7 |
| 20260508035139 | 8 | 244 | 0.0 | 0.0 | 0.00 | 0.00 | 0.00 | 94 | 1014.8 |
| 20260508034636 | 8 | 244 | 0.0 | 0.0 | 0.00 | 0.00 | 0.00 | 93 | 1014.9 |
| 20260508034133 | 8 | 244 | 0.0 | 0.0 | 0.00 | 0.00 | 0.00 | 93 | 1014.9 |
| 20260508033630 | 8 | 244 | 0.0 | 0.0 | 0.00 | 0.00 | 0.00 | 93 | 1014.9 |
| 20260508033128 | 8 | 244 | 0.0 | 0.0 | 0.00 | 0.00 | 0.00 | 92 | 1014.9 |
| 20260508032624 | 8 | 244 | 0.0 | 0.0 | 0.00 | 0.00 | 0.00 | 92 | 1015.0 |
| 20260508032122 | 8 | 244 | 0.0 | 0.0 | 0.00 | 0.00 | 0.00 | 92 | 1015.0 |
| 20260508031619 | 8 | 244 | 0.0 | 0.0 | 0.00 | 0.00 | 0.00 | 91 | 1015.1 |
| 20260508031115 | 9 | 243 | 0.0 | 0.0 | 0.00 | 0.00 | 0.00 | 91 | 1015.1 |
| 20260508030611 | 9 | 244 | 0.0 | 0.0 | 0.00 | 0.00 | 0.00 | 90 | 1015.0 |
| 20260508030110 | 9 | 244 | 0.0 | 0.0 | 0.00 | 0.00 | 0.00 | 90 | 1015.1 |
| 20260508025605 | 9 | 244 | 0.0 | 0.0 | 0.00 | 0.00 | 0.00 | 89 | 1015.0 |
| 20260508025103 | 9 | 244 | 0.0 | 0.0 | 0.00 | 0.00 | 0.00 | 88 | 1014.9 |